Location: Unspecified
(20.0000°S, 0.0000°E)
Time: 05:31:36
(UTC+00:00)

BEESAT - Pass Details

Date: 26 August 2019
Orbit: 701 x 708 km, 98.6° (Epoch: 14 September)

Event Time Altitude Azimuth Distance (km) Brightness Sun altitude
Rises 03:48:52 0° 134° (SE) 3,102 ? -34.7°
Reaches altitude 10° 03:53:19 10° 95° (E) 2,172 ? -33.7°
Maximum altitude 03:54:14 11° 83° (E) 2,135 ? -33.5°
Drops below altitude 10° 03:55:10 10° 72° (ENE) 2,167 ? -33.2°
Sets 03:59:33 0° 33° (NNE) 3,074 ? -32.2°
